CAPE
3 6 9 12 8 8 5 5 4 6 6 8 10 11 12 12 10 9 6 3 0 0 0 0 2 2 2 0 0 0 0 0 0 0 0 0 0 0 0 0 0 0 0 0 0 0 0
8 8 7 9 10 11 10 10 12 10 11 14 15 10 9 8 8 5 2 1 0 0 0 0 3 8 3 0 0 0 0 0 0 0 0 0 0 0 0 0 0 0 0 0 0 0 0
7 6 10 10 10 10 10 7 8 11 11 10 13 17 18 14 9 6 4 0 0 0 1 1 4 6 0 0 0 0 0 0 0 0 0 0 0 0 0 0 0 0 0 0 0 0 0
9 10 10 9 9 9 8 9 9 9 10 9 14 13 8 6 7 9 5 0 0 0 0 0 1 5 0 0 0 0 0 0 0 0 0 0 0 0 0 0 0 0 0 0 0 0 0
7 6 8 7 5 7 10 9 10 8 12 13 10 4 2 1 1 5 0 0 0 0 0 0 0 0 0 0 0 0 0 0 0 0 0 0 0 0 0 0 0 0 0 0 0 0 0
8 8 9 9 11 10 15 14 9 16 13 13 11 5 3 1 2 0 0 0 0 0 0 0 0 0 0 0 0 0 0 0 0 0 0 0 0 0 0 0 0 0 0 0 0 0 0
8 11 11 8 11 12 16 15 12 13 16 16 10 7 11 7 2 0 0 0 0 0 0 0 0 0 0 0 0 0 0 0 0 0 0 0 0 0 0 0 0 0 0 0 0 0 0
10 11 11 21 24 23 27 28 26 27 26 22 17 24 17 11 5 0 0 0 1 0 5 0 0 0 0 0 0 0 0 0 0 0 0 0 0 0 0 0 0 0 0 0 0 0 0
10 15 14 15 20 20 21 23 30 30 26 24 24 12 12 2 0 0 0 0 1 7 6 0 0 0 0 0 0 0 0 0 0 0 0 0 0 0 0 0 0 0 0 0 0 0 0
5 14 7 22 24 24 25 27 33 30 21 37 29 4 12 0 0 0 0 0 0 2 0 0 0 0 0 0 0 0 0 0 0 0 0 0 0 0 0 0 0 0 0 0 0 0 0
17 25 25 13 16 17 16 23 28 26 51 47 27 4 0 2 0 0 0 0 0 0 0 0 0 0 0 0 0 0 0 0 0 0 0 0 0 0 0 0 0 0 0 0 0 0 0
19 14 21 12 17 20 17 25 29 23 45 35 18 1 0 0 0 0 0 0 0 0 0 0 0 0 0 0 0 0 0 0 0 0 0 0 0 0 0 0 0 0 0 0 0 0 0
12 13 20 21 20 19 16 22 23 25 36 42 3 0 0 9 0 0 0 0 0 0 0 0 0 0 0 0 0 0 0 0 0 0 0 0 0 0 0 0 0 0 0 0 0 0 0
12 19 19 18 20 19 29 13 18 34 35 46 26 0 0 0 0 4 0 0 0 0 0 0 0 0 0 0 0 0 0 0 0 0 0 0 0 0 0 0 0 0 0 0 0 0 0
19 14 18 17 24 21 22 21 30 32 66 61 23 0 0 2 0 0 1 0 0 0 0 0 0 0 0 0 0 2 0 0 2 7 32 9 0 0 0 0 0 0 0 0 0 0 0
12 10 18 20 13 12 13 19 21 27 44 24 1 0 11 0 1 20 12 0 0 0 0 0 1 7 2 0 0 0 0 0 0 0 0 0 0 0 0 0 0 0 0 0 0 1 0
14 14 18 25 26 22 23 30 34 31 6 19 7 0 0 0 0 2 20 13 7 2 1 12 15 7 0 5 3 0 3 0 0 0 1 0 13 0 0 0 0 0 0 0 0 2 0
19 22 19 19 16 24 24 34 41 30 10 0 24 0 0 0 1 42 47 17 32 16 17 14 6 11 4 7 11 6 5 7 0 18 14 3 8 46 0 0 0 0 0 0 12 3 3
14 13 9 12 23 24 21 17 23 21 7 7 9 7 0 4 30 12 0 8 6 5 11 16 15 24 6 7 3 6 1 13 13 3 20 3 2 0 0 0 2 0 1 0 2 1 3
10 18 19 16 15 24 16 12 23 4 1 2 7 1 0 12 15 1 11 0 0 0 11 23 7 6 18 10 7 5 0 0 1 4 47 21 45 24 10 4 0 2 3 7 3 2 7
9 8 8 7 8 9 12 17 19 3 0 16 10 8 14 0 0 0 3 5 2 1 0 4 0 24 50 27 0 0 8 0 0 0 3 47 22 3 12 6 6 23 0 5 3 0 3
3 3 5 8 7 9 13 14 2 0 0 24 21 3 15 2 0 0 0 0 2 0 14 0 8 53 43 12 16 10 39 0 4 0 1 0 0 0 2 3 0 3 0 0 0 0 0
9 11 9 9 11 15 16 13 12 13 8 24 44 34 24 0 0 1 1 0 3 23 0 8 18 8 5 2 5 5 0 0 0 4 4 10 7 11 0 0 0 0 2 0 0 0 0
5 4 3 4 7 6 7 7 9 13 20 34 13 40 26 5 2 2 0 11 1 0 13 0 9 13 6 0 0 0 0 0 0 1 5 0 8 18 4 0 0 1 0 0 0 1 0
6 7 8 12 23 30 27 25 26 21 12 27 29 18 25 5 0 0 0 3 0 0 15 0 0 10 1 0 1 0 0 0 0 1 0 3 0 1 0 1 0 0 0 2 1 0 0
5 3 4 6 14 10 5 9 9 5 7 20 10 26 13 16 0 0 15 13 0 1 0 0 0 0 0 5 5 1 1 0 1 1 0 0 0 0 0 0 0 0 0 0 0 0 0
3 3 4 9 12 4 4 10 5 4 5 10 25 23 13 3 1 10 10 14 11 2 3 0 0 0 0 3 10 2 5 3 4 0 0 0 0 0 0 0 0 0 0 0 0 0 0
2 5 4 4 16 6 9 9 6 3 7 16 0 26 23 0 0 1 0 2 0 1 1 0 0 0 0 11 7 3 12 3 0 0 0 0 0 0 0 0 0 0 0 0 0 0 1
5 6 8 8 10 12 8 6 10 9 7 15 25 27 37 4 1 0 4 2 5 5 7 0 1 2 3 6 0 0 1 0 0 0 0 0 0 0 0 0 0 0 0 0 0 0 0
CIN
0 -0 -0 -0 0 0 0 0 0 0 0 0 0 0 0 0 0 0 0 0 0 0 0 0 0 0 -0 0 0 0 0 0 0 0 0 0 0 0 0 0 0 0 0 0 0 0 0
0 0 -0 0 0 -0 0 0 0 0 0 0 0 0 0 0 0 0 0 0 0 0 0 0 0 -0 0 0 0 0 0 0 0 0 0 0 0 0 0 0 0 0 0 0 0 0 0
0 0 0 0 0 0 0 0 0 0 0 0 0 0 0 0 0 0 0 0 0 0 0 0 0 0 0 0 0 0 0 0 0 0 0 0 0 0 0 0 0 0 0 0 0 0 0
0 0 0 0 0 0 0 -0 0 -0 -0 0 0 0 0 0 0 0 0 0 0 0 0 0 0 0 0 0 0 0 0 0 0 0 0 0 0 0 0 0 0 0 0 0 0 0 0
-0 0 0 0 0 0 0 0 0 0 0 0 0 0 0 0 0 0 0 0 0 0 0 0 0 0 0 0 0 0 0 0 0 0 0 0 0 0 0 0 0 0 0 0 0 0 0
0 -0 -0 0 0 0 0 0 0 -0 -0 0 0 0 0 0 0 0 0 0 0 0 0 0 0 0 0 0 0 0 0 0 0 0 0 0 0 0 0 0 0 0 0 0 0 0 0
-0 0 0 0 0 -0 0 0 -0 -0 0 0 0 0 0 0 0 0 0 0 0 0 0 0 0 0 0 0 0 0 0 0 0 0 0 0 0 0 0 0 0 0 0 0 0 0 0
0 0 -0 -0 -0 0 0 0 0 0 -0 0 0 0 0 0 0 0 0 0 0 -1 0 0 0 0 0 0 0 0 0 0 0 0 0 0 0 0 0 0 0 0 0 0 0 0 0
0 -0 -0 -0 -0 0 0 -0 0 0 0 -0 0 0 0 0 0 0 0 0 -0 -1 0 0 0 0 0 0 0 0 0 0 0 0 0 0 0 0 0 0 0 0 0 0 0 0 0
0 -0 -0 0 -0 0 0 0 0 -0 0 0 0 0 0 0 0 0 0 0 -0 -1 0 0 0 0 0 0 0 0 0 0 0 0 0 0 0 0 0 0 0 0 0 0 0 0 0
0 0 -0 -0 0 0 0 0 0 0 0 0 0 0 0 -10 0 0 0 0 0 -1 0 0 0 0 0 0 0 0 0 0 0 0 0 0 0 0 0 0 0 0 0 0 0 0 0
-0 0 0 -0 -0 -0 0 -0 0 -0 0 0 0 0 0 0 0 0 0 0 -0 0 0 0 0 0 0 0 0 0 0 0 0 0 0 0 0 0 0 0 0 0 0 0 0 0 0
0 -0 -0 -0 0 -0 0 0 0 0 0 0 0 0 0 -2 0 -0 -1 0 0 0 0 0 0 0 0 0 0 0 0 0 0 0 0 0 0 0 0 0 0 0 0 0 0 0 0
0 0 0 -0 0 0 0 0 -0 0 0 0 -0 0 0 0 -0 -1 -0 0 0 0 0 0 0 0 0 0 0 0 0 0 0 0 0 0 0 0 0 0 0 0 0 0 0 0 0
-0 -0 0 -0 -0 -0 0 -0 0 0 0 0 -2 0 0 -12 0 0 0 0 0 0 0 0 0 0 0 0 0 -10 -1 0 -3 -12 -7 -3 0 0 0 0 0 0 0 0 0 0 0
-0 -0 -0 0 0 -0 0 0 -0 0 0 0 -1 0 -4 0 -10 -5 -1 -0 0 0 -0 -0 -0 -2 -1 0 0 0 0 0 0 0 0 0 0 0 0 0 0 0 0 0 0 -2 -0
0 0 -0 -0 -0 -0 0 0 -0 -0 -0 -1 -1 0 0 0 0 -1 -0 -0 -10 -25 -10 -0 -0 -1 -0 -0 -6 0 -0 0 0 0 0 0 -16 0 0 -18 0 -3 0 0 0 -25 0
-0 0 0 0 0 0 0 -0 0 0 0 0 -3 0 0 0 -1 -8 -1 -1 -0 -0 -10 -4 -3 -3 -1 -0 -1 -0 0 -8 0 0 0 -10 -0 -1 -1 -2 0 0 0 -2 -12 -31 -20
-0 -0 0 -0 0 0 0 0 0 0 0 -1 -0 -0 0 -22 -0 -0 0 -0 -0 -0 -4 -3 -2 -2 -14 -6 -1 -19 -22 -23 -10 -2 -2 -0 -0 -0 0 0 -63 -0 0 -0 0 -2 -41
0 0 -0 0 0 0 -0 0 0 -0 0 -4 -0 -0 0 -4 -4 -1 -2 0 0 0 -2 -8 -9 -22 -26 -19 -51 -3 -58 -28 -7 -7 -3 -3 -1 0 -0 -0 0 -0 0 -1 -0 0 -8
0 -0 -0 0 -0 0 0 0 0 0 0 -6 -2 -0 -0 -0 0 0 -3 -3 -1 -1 -0 -4 0 -4 -0 -7 0 -20 -41 -17 0 0 -13 -11 -1 -5 -1 -14 -17 -3 0 -4 -3 0 -0
-0 -0 0 0 -0 0 -0 -0 0 0 0 -6 -0 -1 -0 -0 -3 -1 0 -5 -0 -0 -2 0 -6 -11 -1 -0 -0 -0 -1 0 -1 0 -0 0 0 0 -4 -23 -7 -4 0 0 0 0 0
-0 0 -0 -0 0 -0 0 0 -0 0 -2 -5 -10 -1 -0 -0 -0 -0 -1 0 -0 -0 0 -3 -3 -3 -0 -0 -2 -1 -1 0 -0 -0 -0 -1 -1 -4 0 0 0 0 0 0 0 -0 0
-0 -0 0 0 0 0 -0 -0 -0 0 -0 -1 -3 -2 -0 -1 -1 -0 -1 -0 -0 -0 -0 0 -13 -3 -4 0 0 0 0 0 -0 -0 -0 0 -1 -0 -11 0 0 0 0 0 0 0 -0
-0 0 0 0 -0 0 -0 -0 0 0 -0 -2 -5 -4 0 -0 -0 0 -0 0 0 0 -1 0 0 -20 -19 0 -1 0 0 -17 0 -0 -0 -0 0 -13 0 -2 0 0 0 0 0 0 -0
0 0 0 0 0 0 0 0 0 0 0 -1 -3 -9 -3 0 0 0 0 -1 0 -0 0 0 0 0 0 -0 -0 -0 -2 0 -9 -11 0 0 0 0 0 0 0 0 0 -0 0 0 0
0 -0 -0 -0 -1 0 0 0 -0 0 0 -1 -1 -7 -0 -0 -0 -1 -0 0 0 -0 -0 0 0 0 -0 -0 -1 -1 -10 -12 -15 0 0 0 0 0 -0 0 0 0 0 0 0 0 -0
-0 0 -0 -0 -2 -0 0 -0 0 -0 0 -2 -2 -8 -1 0 0 0 0 0 0 0 -0 0 0 0 0 -0 -6 -4 -3 -7 0 0 0 0 0 0 0 0 0 0 0 0 0 0 -0
0 0 -0 0 -0 0 0 0 0 0 0 -0 -0 -4 -5 -1 0 0 0 0 0 0 0 -0 -0 -0 0 -0 0 0 -1 0 0 0 0 0 0 0 0 0 0 0 0 0 0 0 0
Wind_Speed
13 14 15 16 17 17 18 18 19 20 21 21 22 23 24 24 25 25 26 27 27 25 23 20 16 12 8 10 13 9 10 11 10 13 15 16 16 15 9 11 14 21 19 13 14 12 13
14 15 16 16 17 18 18 19 20 20 21 22 23 24 25 26 27 27 27 28 29 27 24 20 14 7 6 17 5 6 8 9 11 14 12 13 8 13 9 13 13 9 20 20 13 16 8
14 15 16 16 17 18 18 19 20 21 21 23 24 25 26 27 28 29 30 31 29 28 27 22 14 9 12 20 3 2 8 10 8 12 10 11 12 7 6 15 10 12 9 10 13 9 10
14 15 16 17 18 18 19 20 21 22 23 23 25 26 27 28 30 30 32 32 27 24 16 9 8 11 9 2 5 10 8 9 10 7 9 8 7 8 8 11 7 5 8 12 9 19 16
14 15 16 17 18 19 19 19 21 22 22 23 25 26 28 29 29 31 32 31 27 13 7 4 8 8 7 1 4 8 9 12 8 7 5 5 4 5 7 9 9 9 9 16 16 19 4
14 15 16 16 18 18 19 20 21 20 22 23 24 25 27 28 29 32 31 34 6 1 7 6 6 3 6 2 4 2 9 9 7 6 4 6 6 7 9 9 14 10 17 17 14 8 9
14 15 16 16 17 17 18 19 19 21 21 22 24 25 27 28 29 29 22 5 7 2 6 9 11 13 4 4 4 6 8 9 9 8 9 12 8 14 17 20 17 17 20 21 15 9 9
15 16 16 17 18 18 19 19 19 20 22 23 24 25 27 29 32 25 11 6 5 6 15 16 22 21 17 8 4 9 11 11 10 13 14 9 18 16 17 19 20 20 22 21 15 15 8
15 16 17 18 18 19 20 21 21 21 22 23 23 25 26 29 29 9 7 8 6 4 8 12 5 6 3 12 10 10 12 9 11 14 17 17 9 23 19 17 18 21 18 16 15 14 13
16 16 17 18 19 20 21 22 22 21 21 21 22 25 25 32 8 12 3 11 9 3 6 4 3 2 4 4 7 11 14 6 8 13 14 16 21 23 17 18 14 20 12 14 14 11 13
15 17 17 19 19 20 21 22 22 23 21 20 22 25 25 23 9 6 10 10 10 3 9 5 5 3 3 5 4 3 5 4 14 10 5 10 8 7 19 26 20 19 8 9 8 11 4
15 17 17 19 20 20 21 22 22 22 21 21 22 24 25 9 6 7 11 12 5 3 11 4 4 0 4 8 4 4 4 3 4 11 17 17 7 3 9 6 9 0 6 3 6 3 9
16 17 18 18 19 20 21 22 22 23 22 22 24 24 19 10 7 12 11 6 3 6 3 5 5 8 11 7 7 9 7 9 9 4 9 9 23 21 10 6 3 4 7 3 4 6 12
16 17 17 18 19 20 20 21 22 23 22 21 23 28 9 4 5 8 5 4 7 5 7 14 16 20 14 9 9 12 9 14 14 15 14 8 13 18 16 22 11 16 18 8 10 9 9
16 17 17 18 19 20 21 21 22 23 21 21 23 6 6 4 5 6 5 4 5 9 11 16 21 14 12 19 19 12 11 13 11 17 18 9 17 8 4 9 15 9 20 22 12 16 4
15 17 17 17 18 19 20 21 22 22 21 23 7 6 4 6 5 6 3 7 10 17 16 15 13 11 15 17 20 18 12 16 18 25 23 8 13 17 7 1 8 10 4 8 10 9 16
15 16 16 17 18 19 19 20 20 21 22 19 5 5 3 8 6 2 3 5 13 15 16 12 19 22 19 19 14 16 9 18 18 18 21 15 8 9 8 4 11 6 6 5 7 11 3
17 17 18 18 18 18 18 19 19 19 20 9 2 4 7 5 3 3 4 14 16 16 14 17 12 10 13 18 17 12 18 10 15 11 15 8 5 6 13 16 8 9 5 8 8 10 6
16 16 17 17 17 16 17 18 17 16 16 5 5 3 5 3 5 7 12 15 7 17 16 17 13 15 14 18 14 8 10 5 5 4 6 6 3 5 11 8 1 4 7 9 9 4 11
16 16 16 16 16 16 16 17 16 14 14 6 4 5 2 1 3 11 12 12 18 12 13 15 17 14 12 11 13 9 17 10 12 12 19 8 3 5 4 8 7 9 17 14 6 5 1
15 16 16 16 16 16 16 15 14 13 13 4 2 3 4 5 8 12 12 11 16 16 13 10 8 11 17 8 12 13 13 15 14 16 6 1 8 6 8 8 9 9 12 5 5 8 8
14 14 15 15 16 15 15 14 13 13 15 1 3 3 1 8 9 11 11 7 16 17 13 13 13 21 11 6 11 19 13 12 12 9 7 3 8 13 5 13 11 7 8 13 9 13 10
14 14 15 16 16 15 14 13 13 12 8 2 2 1 2 6 7 7 6 18 19 18 7 18 16 16 13 13 12 16 16 19 18 16 17 7 4 3 5 3 4 1 16 11 14 18 7
14 14 15 15 15 14 14 14 13 12 8 1 2 1 3 5 5 9 18 15 18 19 19 15 13 7 6 12 14 10 14 18 15 16 11 10 6 6 3 1 2 6 14 17 21 18 16
12 13 13 13 14 16 16 17 16 13 11 3 2 2 2 5 7 13 14 15 15 13 7 12 7 4 7 6 6 8 7 4 3 6 5 9 4 4 1 1 7 6 12 10 9 12 17
14 14 15 15 13 15 16 16 17 16 17 5 3 3 2 4 5 9 10 7 6 10 8 6 6 7 3 3 2 3 4 4 4 0 4 4 5 2 4 2 2 3 17 12 6 4 14
15 16 16 14 11 15 16 16 17 18 17 7 4 6 3 4 3 2 4 5 4 5 5 7 10 7 1 2 3 4 4 1 1 5 7 4 6 3 5 2 4 12 16 10 1 5 10
15 17 17 12 10 14 15 15 17 19 20 9 6 6 3 3 3 2 2 2 3 2 4 7 9 4 4 3 3 5 3 5 5 4 5 5 6 5 5 5 2 20 7 8 5 9 10
14 15 15 13 13 15 17 17 16 20 22 18 4 1 1 2 2 3 5 4 4 5 4 4 5 6 5 4 5 5 4 7 7 4 8 5 4 2 5 4 3 7 11 9 9 7 10
Wind_Direction
26 21 15 12 10 7 3 1 359 355 353 349 346 343 340 336 332 328 323 319 315 312 308 302 296 296 288 229 245 264 144 153 167 191 216 203 215 197 216 215 233 222 245 255 249 248 256
19 17 12 9 7 4 2 359 359 354 351 349 348 345 341 335 332 327 321 315 313 309 303 292 281 268 240 250 276 138 167 162 179 198 215 214 218 221 264 250 246 253 236 245 255 266 257
17 14 13 10 8 5 2 360 357 354 354 349 348 346 341 335 331 327 321 314 310 307 303 286 255 219 238 238 277 26 180 186 198 201 221 230 246 260 244 264 298 291 280 291 252 256 257
17 14 12 10 4 3 2 0 359 352 349 352 350 347 342 336 331 326 319 310 305 304 302 293 211 192 245 77 281 249 203 211 215 214 243 273 267 281 270 293 283 288 259 253 245 235 233
15 14 9 5 3 360 360 0 357 357 351 351 348 344 340 336 331 328 318 309 304 290 295 191 159 208 256 211 213 215 222 214 196 225 210 242 253 230 240 230 274 228 254 236 251 254 255
14 11 8 4 360 359 358 358 357 356 354 349 345 342 339 335 330 327 317 308 289 168 239 219 273 216 232 222 100 247 196 215 178 187 189 215 208 216 208 202 220 217 237 239 243 241 177
7 4 1 358 356 353 352 351 352 348 348 346 343 338 337 333 331 326 326 345 1 210 5 279 294 264 311 74 160 218 193 189 192 180 204 196 206 216 218 223 243 265 280 281 278 285 178
359 358 353 347 349 348 346 343 343 343 344 343 341 336 335 331 331 325 320 44 49 278 296 273 264 260 259 298 285 204 170 188 195 205 213 223 225 221 224 228 238 244 251 259 273 276 203
355 354 351 349 352 349 348 346 343 343 342 342 340 335 334 332 325 320 358 35 337 358 276 292 231 273 236 206 226 214 187 198 193 213 220 227 220 215 235 248 254 252 253 262 259 290 282
355 349 349 350 350 350 348 347 345 344 345 339 341 335 338 335 324 328 72 2 337 6 293 213 211 187 129 265 235 231 205 225 219 240 237 254 244 244 228 225 224 253 247 263 258 255 257
350 351 353 351 350 349 348 347 348 349 342 342 341 336 330 327 291 313 333 339 318 247 325 95 111 68 126 232 352 193 330 254 245 236 219 235 210 220 234 240 233 249 226 246 272 253 284
354 351 348 350 350 350 349 349 349 348 350 347 340 332 325 321 302 354 331 314 280 251 251 107 113 174 227 204 235 123 214 312 317 264 264 252 268 273 229 254 233 121 179 211 259 209 245
352 352 352 350 349 349 348 348 346 346 346 341 335 326 317 295 319 326 319 289 255 209 271 57 352 347 322 272 235 186 199 194 209 202 215 236 238 240 199 256 211 213 162 194 230 202 236
356 350 349 349 347 347 348 347 345 347 345 341 330 314 308 333 346 321 305 256 230 308 4 8 349 310 276 295 274 268 217 237 224 256 282 272 271 206 204 206 188 207 188 192 214 192 234
352 347 348 348 347 348 346 346 345 346 343 338 320 299 308 38 336 318 302 246 323 24 355 339 332 331 336 341 343 332 294 282 279 268 260 267 260 228 142 185 201 227 211 228 277 283 294
349 347 348 346 347 347 347 348 350 349 348 336 317 317 30 340 327 311 296 281 329 358 352 343 322 329 336 325 327 334 330 330 11 344 347 315 309 274 311 197 243 240 319 231 225 237 244
346 343 339 341 340 343 343 346 347 351 349 333 316 331 25 333 323 278 302 326 329 335 336 336 308 304 313 325 340 324 308 317 27 341 318 315 270 296 303 169 263 245 249 241 270 230 254
347 344 346 347 345 344 342 341 343 349 353 339 332 347 354 334 329 55 330 324 326 329 318 303 319 311 309 310 308 306 293 305 356 341 331 346 304 306 299 303 348 341 340 304 259 257 242
349 349 349 347 343 344 347 349 350 351 356 313 349 302 305 312 12 347 330 329 323 319 314 316 309 302 300 303 303 308 306 294 5 345 338 327 339 330 312 247 146 263 312 258 273 264 211
351 357 360 1 1 358 358 355 354 354 351 333 355 338 292 288 334 349 329 312 321 315 314 326 307 302 297 299 295 286 300 297 337 309 300 277 264 239 298 285 276 306 324 319 315 273 268
3 3 1 360 1 360 358 356 358 356 349 317 20 17 28 319 330 313 307 313 314 323 335 325 308 320 305 295 303 292 311 311 308 297 313 72 266 246 257 257 262 269 277 313 322 339 304
4 1 0 2 1 1 359 358 357 357 342 226 334 346 286 287 284 310 317 314 327 326 336 312 329 319 314 295 296 300 317 305 274 297 286 341 276 287 259 252 257 275 13 351 40 347 39
3 4 4 2 360 357 357 358 3 5 352 350 34 158 266 282 304 314 315 327 315 328 297 325 309 314 316 307 313 290 277 269 256 266 279 248 247 289 262 301 39 5 356 352 83 25 355
8 5 3 358 354 353 354 356 357 1 4 324 313 273 264 281 310 301 315 323 319 316 301 303 305 298 294 330 301 279 254 256 256 260 249 255 259 271 239 41 114 92 38 71 76 39 28
1 359 353 348 355 5 3 0 356 347 337 302 280 192 230 272 300 300 330 320 316 311 318 302 332 293 323 311 307 325 306 342 28 23 336 226 228 258 205 135 121 48 25 354 1 44 20
357 355 346 347 3 1 352 355 358 345 339 304 253 221 233 267 223 345 315 327 328 320 311 278 337 315 319 272 280 274 294 300 335 313 10 30 23 7 5 50 247 8 330 327 290 86 10
358 350 343 339 343 350 353 354 354 352 342 319 274 216 219 247 260 52 297 319 311 296 285 320 331 332 10 280 270 255 273 233 356 42 343 5 352 344 336 70 87 335 315 293 185 9 5
356 355 352 350 5 356 357 350 349 347 343 330 279 267 212 237 286 44 52 349 323 17 312 331 323 22 319 311 301 351 328 353 80 36 3 46 331 21 316 40 301 348 24 58 341 21 12
349 354 358 0 343 339 342 343 347 346 343 335 264 310 347 241 15 41 76 86 37 3 303 318 285 300 342 334 3 316 324 357 14 73 23 43 2 19 25 77 55 22 43 36 20 15 7